Location: Bourg-d�Oueil
(42.8588°N, 0.4991°E)
Time: 13:55:45
(UTC+00:00)

Cosmos 1025 Rocket - Pass Details

Date: 16 June 2021
Orbit: 593 x 619 km, 82.5° (Epoch: 31 July)

Event Time Altitude Azimuth Distance (km) Brightness Sun altitude
Exits shadow 21:09:57 20° 146° (SE) 1,416 4.3 -13.2°
Maximum altitude 21:12:22 37° 91° (E) 965 3.7 -13.5°
Drops below altitude 10° 21:16:25 10° 25° (NNE) 1,982 6.0 -13.9°
Sets 21:18:45 0° 17° (NNE) 2,888 7.0 -14.2°
